Regional Weather Roundup
Issued by NWS Green Bay, WI

Home | Current Version | Previous Version | Text Only | Print | Product List | Glossary On
Versions: 1 2 3 4 5 6 7 8 9 10 11 12 13 14 15 16 17 18 19 20 21 22 23 24 25 26 27 28 29 30 31 32 33 34 35 36 37 38 39 40 41 42 43 44 45 46 47 48 49 50
360
ASUS43 KGRB 231011
RWRGRB

NORTH-CENTRAL AND NORTHEAST WISCONSIN REGIONAL WEATHER ROUNDUP
NATIONAL WEATHER SERVICE GREEN BAY WI
400 AM CST THU NOV 23 2017

WIZ005-009-010>012-018-019-231100-
NORTH CENTRAL WISCONSIN

CITY           SKY/WX    TMP DP  RH WIND       PRES   REMARKS
IRONWOOD       CLOUDY    25  18  74 SW6       29.91F
MANITOWISH WTR CLOUDY    23  20  87 SW5       29.90S
ARBOR VITAE    CLOUDY    25  22  88 SW5       29.90F
EAGLE RIVER    CLOUDY    24  19  81 SW6       29.89F
LAND O LAKES   CLOUDY    24  20  83 SW5       29.90F
RHINELANDER    CLOUDY    24  21  88 SW7       29.91F
PHILLIPS       CLOUDY    24  20  84 SW3       29.91F
ANTIGO         CLOUDY    25  20  81 SW6       29.93F
TOMAHAWK       CLOUDY    24  20  86 CALM      29.92F
MERRILL        MOCLDY    25  20  81 CALM      29.94F
$$

WIZ013-073-231100-
NORTHEAST WISCONSIN

CITY           SKY/WX    TMP DP  RH WIND       PRES   REMARKS
IRON MOUNTAIN  CLOUDY    27  18  69 SW3       29.91F
MARINETTE      CLOUDY    29  21  72 SW5       29.99F
OCONTO         CLOUDY    28  22  76 SW5       29.99F
$$

WIZ017-030-035>037-045-231100-
CENTRAL WISCONSIN

CITY           SKY/WX    TMP DP  RH WIND       PRES   REMARKS
MEDFORD        CLEAR     20  17  87 CALM      29.91F
WAUSAU         CLOUDY    25  19  78 SE3       29.93F
MOSINEE        MOCLDY    23  21  93 CALM      29.95F
MARSHFIELD     CLOUDY    23  16  74 S3        29.92F
WISC RAPIDS    CLOUDY    28  18  66 CALM      29.96F
STEVENS POINT  CLOUDY    25  18  74 CALM      29.96F
WAUPACA        CLOUDY    31  23  72 CALM      29.98S
SHAWANO        CLOUDY    30  23  74 CALM      29.97F
CLINTONVILLE   CLOUDY    28  21  74 CALM      29.98F
WAUTOMA        CLOUDY    29  22  75 CALM      29.98S
$$

WIZ038-039-048-051-231100-
FOX VALLEY

CITY           SKY/WX    TMP DP  RH WIND       PRES   REMARKS
NWS GREEN BAY  CLOUDY    31  25  78 SW5       30.00F
APPLETON       CLOUDY    30  19  64 SW5       29.97S
OSHKOSH        CLOUDY    30  21  69 SW6       29.99S
FOND DU LAC    CLOUDY    32  19  58 SW7       29.98F
$$

WIZ022-050-052-231100-
EAST CENTRAL WISCONSIN

CITY           SKY/WX    TMP DP  RH WIND       PRES   REMARKS
EPHRAIM        CLOUDY    29  22  73 W6        29.96F
WASHINGTON ISL CLOUDY    31  22  71 W10       29.97F
STURGEON BAY   CLOUDY    29  23  78 SW8       29.99F
MANITOWOC      NOT AVBL
SHEBOYGAN      CLOUDY    31  22  69 S7        30.00S
$$

LMZ563-521-522-541>543-231100-
LAKESHORE

STATION/POSITION TIME  TEMP    WIND        PRES    VSBY  WAVE
                       AIR SEA DIR/SP/G                  HT/PER
                 (UTC) (F)     (DEG/KT/KT) (MB)    (MI)  (FT/S)
SHEBOYGAN LKSHOR 1000   32     210/  7/  9 1016.6F
KEWAUNEE LKSHORE 0948   30     230/  3/  5 1015.1F
NORTHPORT PIER   0940   31     230/  3/  9 1014.9F
N MID LAKE BUOY  0950   33 47  240/ 16/ 19 1015.9F         4/ 6
MENOMINEE LKSHOR 0948   29     210/  8/  9 1015.0F
$$




USA.gov is the U.S. government's official web portal to all federal, state and local government web resources and services.